Regional Weather Roundup
Issued by NWS

Home | Current Version | Previous Version | Text Only | Print | Product List | Glossary On
Versions: 1 2 3 4 5 6 7 8 9 10 11 12 13 14 15 16 17 18 19 20 21 22 23 24 25 26 27 28 29 30 31 32 33 34 35 36 37 38 39 40 41 42 43 44 45 46 47 48 49 50
000
ASUS43 KTOP 242308
RWRKS

WEATHER ROUNDUP FOR KANSAS
NATIONAL WEATHER SERVICE GOODLAND KS
600 PM CDT SAT SEP 24 2016

NOTE:  "FAIR" INDICATES FEW OR NO CLOUDS BELOW 12,000 FEET WITH NO
SIGNIFICANT WEATHER AND/OR OBSTRUCTIONS TO VISIBILITY.

KSZ001>006-013>018-027>032-041>047-250000-
NORTHWEST KANSAS

CITY           SKY/WX    TMP DP  RH WIND       PRES   REMARKS
GOODLAND       SUNNY     74  30  19 S8        29.95S
HAYS           CLOUDY    75  57  53 S6        29.92R
HILL CITY      SUNNY     78  49  35 CALM      29.92R
RUSSELL        CLOUDY    71  65  81 SE3       29.90S
$$

KSZ061>065-074>080-084>089-250000-
SOUTHWEST KANSAS

CITY           SKY/WX    TMP DP  RH WIND       PRES   REMARKS
DODGE CITY     CLOUDY    74  64  71 E13       29.89R
ELKHART          N/A     80  39  23 W3          N/A
GARDEN CITY    SUNNY     80  44  27 NW8       29.92R
GREAT BEND     CLOUDY    72  63  73 SE5       29.90F
LIBERAL        SUNNY     84  46  26 W13       29.90R
PRATT          CLOUDY    67  65  93 S3        29.92F
$$

KSZ066>073-081>083-090>101-250000-
SOUTHEAST KANSAS

CITY           SKY/WX    TMP DP  RH WIND       PRES   REMARKS
CHANUTE        MOSUNNY   87  70  56 SE17      29.91S
COFFEYVILLE    MOSUNNY   88  68  51 SE17G24   29.90S
HUTCHINSON     TSTM      69  67  93 CALM      29.89F FOG
MEDICINE LODGE   N/A     67  66  97 S6          N/A
NEWTON         CLOUDY   N/A N/A N/A NW6       29.92S
PARSONS        SUNNY     88  67  49 S8G17     29.92S
WICHITA INTL   TSTM      73  70  90 W13G24    29.89R
WICHITA JABRA  PTSUNNY   76  69  79 SE10      29.87F
WICHITA MCCONL CLOUDY    76  69  78 SE13      29.86F
WINFIELD       TSTM      73  70  90 NW10      29.90R FOG
$$

KSZ007>012-019>026-033>040-048>060-102>105-250000-
NORTHEAST KANSAS

CITY           SKY/WX    TMP DP  RH WIND       PRES   REMARKS
CONCORDIA      CLOUDY    71  71 100 SE6       29.91F
EMPORIA        TSTM      76  71  85 MISG      29.93R VSB 1
LAWRENCE       CLOUDY    85  71  63 SE13      29.91R
MANHATTAN      LGT RAIN  71  69  93 E6        29.93R
MARYSVILLE     CLOUDY    68  68 100 SE6       29.94S
OLATHE IND     SUNNY     85  70  60 SE13      29.93S
OLATHE EXE     SUNNY     84  68  58 S15       29.93F
SALINA         CLOUDY    71  68  90 CALM      29.89F
TOPEKA BILLARD LGT RAIN  76  68  76 NW16      29.91R
TOPEKA FORBES  PTSUNNY   85  70  60 SE9       29.90F
$$




USA.gov is the U.S. government's official web portal to all federal, state and local government web resources and services.